Location: Cormont
(50.5693°N, 1.7416°E)
Time: 01:53:17
(UTC+00:00)

Cosmos 2082 Rocket - Pass Details

Date: 21 October 2019
Orbit: 832 x 854 km, 71.0° (Epoch: 21 November)

Event Time Altitude Azimuth Distance (km) Brightness Sun altitude
Rises 19:40:03 0° 322° (NW) 3,433 6.2 -27.5°
Reaches altitude 10° 19:43:00 10° 308° (NW) 2,489 5.5 -28.0°
Maximum altitude 19:47:18 23° 259° (WSW) 1,752 4.4 -28.6°
Drops below altitude 10° 19:51:36 10° 209° (SSW) 2,466 4.7 -29.3°
Enters shadow 19:54:03 - 197° (SSW) 3,240 5.2 -29.6°
